Home > Time Zones > World Clock > Weather > India > Sikar > Past weeks

Flag for India Weather past 2 weeks in Sikar, Rajasthan, India

Now
77 °F

Drizzle. Mostly cloudy.


Feels Like: 78 °F
Forecast: 80 / 89 °F
Wind: 5 mph from Southwest

Location: Jaipur / Sanganer

Current Time: Jul 30, 2015 at 12:19:08 AM

Latest Report: Jul 29, 2015 at 11:00 PM


Visibility: 2 mi

Pressure: 29.56 "Hg

Humidity: 94%

Dew point: 75 °F

Location of SikarLocation

Historic Weather in Sikar — Graph

°F

Sikar temperature yesterday

Maximum temperature yesterday: 81 °F (at 11:00 AM)
Minimum temperature yesterday: 73 °F (at 2:00 AM)
Average temperature yesterday: 77 °F

Past Weeks' High & Low Weather Summary

 TemperatureHumidityPressure
High99 °F (Jul 15, 3:00 PM)100% (Jul 17, 4:00 PM)29.71 "Hg (Jul 17, 4:00 PM)
Low73 °F (Jul 27, 2:00 AM)39% (Jul 16, 4:00 PM)28.12 "Hg (Jul 16, 3:00 AM)
Average84 °F79%29.55 "Hg
* Reported Jul 14 11:00 PM — Jul 29 11:00 PM, Sikar, Weather by CustomWeather, © 2015

Note: Actual official high and low records may vary slightly from our data, if they occured in-between our weather recording intervals... More about our weather records

Advertising

Sikar weather history for previous 24 hours

 ConditionsComfort  
Time TempWeatherWind HumidityBarometerVisibility
11:00 PM
Wed, Jul 29
77 °FDrizzle. Mostly cloudy.5 mph94%29.56 "Hg1 mi
10:00 PM75 °FFog.5 mph100%29.56 "Hg1 mi
9:00 PM75 °FRain. Mostly cloudy.13 mph100%29.53 "Hg1 mi
8:00 PM79 °FFog.3 mph94%29.50 "Hg1 mi
7:00 PM79 °FDrizzle. Broken clouds.8 mph94%29.47 "Hg1 mi
6:30 PM77 °FBroken clouds.5 mph94%29.47 "Hg1 mi
6:00 PM77 °FDrizzle. Broken clouds.8 mph94%29.47 "Hg1 mi
5:00 PM81 °FBroken clouds.7 mph84%29.47 "Hg1 mi
4:00 PM81 °FBroken clouds.8 mph89%29.47 "Hg1 mi
3:00 PM81 °FBroken clouds.9 mph84%29.47 "Hg1 mi
2:00 PM79 °FDrizzle. Broken clouds.7 mph94%29.50 "Hg1 mi
12:00 PM81 °FBroken clouds.10 mph84%29.53 "Hg2 mi
11:00 AM81 °FBroken clouds.12 mph84%29.50 "Hg2 mi
10:00 AM79 °FBroken clouds.12 mph89%29.50 "Hg2 mi
9:00 AM77 °FBroken clouds.9 mph89%29.50 "Hg2 mi
8:00 AM75 °FBroken clouds.8 mph94%29.50 "Hg2 mi
7:00 AM75 °FBroken clouds.8 mph94%29.47 "Hg2 mi
6:00 AM75 °FPartly cloudy.9 mph94%29.47 "Hg2 mi
5:30 AM73 °FPartly cloudy.9 mph100%29.47 "Hg2 mi
4:00 AM73 °FPartly cloudy.7 mph100%29.47 "Hg1 mi
3:00 AM73 °FPartly cloudy.12 mph100%29.50 "Hg1 mi
2:00 AM73 °FPartly cloudy.10 mph94%29.50 "Hg2 mi
1:00 AM77 °FPartly cloudy.12 mph83%29.53 "Hg2 mi
12:00 AM77 °FPartly cloudy.15 mph83%29.56 "Hg2 mi
Weather by CustomWeather, © 2015

See weather overviewHow to use our weather pages